KAL311 RKSI-RJTT

Flight info

Callsign KAL311
Flight time 1h 37m
Altitude 37000
Route EGOBA2Y EGOBA Y697 LANAT Y71 XAC
Aircraft A21N/M-SDE2E3FGHIRWXY/LB1

Departure

Time 2026-05-04 12:53
Airport Incheon International Airport (RKSI)

Arrival

Time 2026-05-04 14:30
Airport Tokyo Haneda International Airport (RJTT)
Time Latitude Longitude Altitude Speed Heading
2026-05-04 12:25 37.46297 126.43437 38 ft 0 kts 235°
2026-05-04 12:29 37.46297 126.43438 38 ft 0 kts 235°
2026-05-04 12:37 37.46309 126.43458 36 ft 0 kts 235°
2026-05-04 12:37 37.46324 126.43487 36 ft 0 kts 235°
2026-05-04 12:37 37.46336 126.43509 36 ft 0 kts 232°
2026-05-04 12:37 37.46354 126.43531 38 ft 0 kts 205°
2026-05-04 12:38 37.46375 126.43533 37 ft 0 kts 145°
2026-05-04 12:38 37.46393 126.43517 37 ft 0 kts 145°
2026-05-04 12:42 37.46379 126.43529 37 ft 4 kts 144°
2026-05-04 12:42 37.46360 126.43546 38 ft 5 kts 144°
2026-05-04 12:43 37.46335 126.43568 38 ft 8 kts 144°
2026-05-04 12:43 37.46280 126.43617 37 ft 11 kts 144°
2026-05-04 12:43 37.46212 126.43678 36 ft 13 kts 145°
2026-05-04 12:43 37.46138 126.43750 37 ft 13 kts 111°
2026-05-04 12:44 37.46188 126.43855 37 ft 15 kts 56°
2026-05-04 12:44 37.46254 126.43970 38 ft 17 kts 53°
2026-05-04 12:44 37.46330 126.44097 38 ft 19 kts 54°
2026-05-04 12:44 37.46410 126.44239 38 ft 21 kts 54°
2026-05-04 12:45 37.46497 126.44394 38 ft 22 kts 54°
2026-05-04 12:45 37.46549 126.44487 38 ft 5 kts 61°
2026-05-04 12:45 37.46568 126.44533 38 ft 7 kts 62°
2026-05-04 12:45 37.46586 126.44602 38 ft 10 kts 94°
2026-05-04 12:46 37.46541 126.44673 38 ft 12 kts 143°
2026-05-04 12:46 37.46469 126.44739 38 ft 14 kts 144°
2026-05-04 12:46 37.46381 126.44816 38 ft 16 kts 146°
2026-05-04 12:46 37.46283 126.44901 37 ft 18 kts 145°
2026-05-04 12:47 37.46175 126.44997 38 ft 20 kts 143°
2026-05-04 12:47 37.46059 126.45102 38 ft 22 kts 144°
2026-05-04 12:47 37.45931 126.45213 38 ft 23 kts 146°
2026-05-04 12:47 37.45793 126.45336 38 ft 25 kts 144°
2026-05-04 12:48 37.45647 126.45466 38 ft 27 kts 145°
2026-05-04 12:48 37.45543 126.45558 38 ft 14 kts 145°
2026-05-04 12:48 37.45458 126.45633 38 ft 16 kts 144°
2026-05-04 12:48 37.45403 126.45683 38 ft 8 kts 144°
2026-05-04 12:49 37.45352 126.45730 38 ft 10 kts 144°
2026-05-04 12:49 37.45295 126.45792 38 ft 12 kts 114°
2026-05-04 12:49 37.45322 126.45886 38 ft 9 kts 55°
2026-05-04 12:49 37.45323 126.45889 38 ft 0 kts 55°
2026-05-04 12:50 37.45327 126.45895 38 ft 3 kts 55°
2026-05-04 12:50 37.45345 126.45928 37 ft 6 kts 53°
2026-05-04 12:50 37.45374 126.45975 37 ft 8 kts 51°
2026-05-04 12:51 37.45417 126.46030 36 ft 10 kts 30°
2026-05-04 12:51 37.45489 126.46026 36 ft 12 kts 332°
2026-05-04 12:51 37.45526 126.45994 35 ft 0 kts 324°
2026-05-04 12:52 37.45564 126.45958 35 ft 31 kts 324°
2026-05-04 12:53 37.45947 126.45623 38 ft 100 kts 324°
2026-05-04 12:53 37.46674 126.44972 37 ft 155 kts 324°
2026-05-04 12:53 37.47631 126.44123 401 ft 167 kts 323°
2026-05-04 12:53 37.48618 126.43312 980 ft 176 kts 327°
2026-05-04 12:54 37.49675 126.42544 1663 ft 180 kts 326°
2026-05-04 12:54 37.50764 126.41609 2133 ft 200 kts 323°
2026-05-04 12:54 37.51989 126.40569 2743 ft 222 kts 324°
2026-05-04 12:54 37.53304 126.39478 3694 ft 228 kts 325°
2026-05-04 12:55 37.54624 126.38388 4568 ft 232 kts 325°
2026-05-04 12:55 37.56018 126.37343 5267 ft 236 kts 335°
2026-05-04 12:55 37.57599 126.36682 6223 ft 241 kts 342°
2026-05-04 12:55 37.59230 126.36116 7195 ft 245 kts 343°
2026-05-04 12:56 37.60879 126.35546 8138 ft 248 kts 345°
2026-05-04 12:56 37.62606 126.35364 9072 ft 254 kts
2026-05-04 12:56 37.64233 126.36240 9950 ft 265 kts 36°
2026-05-04 12:56 37.65403 126.38153 10372 ft 293 kts 64°
2026-05-04 12:57 37.66102 126.40695 10738 ft 319 kts 71°
2026-05-04 12:57 37.66666 126.43523 11064 ft 346 kts 81°
2026-05-04 12:57 37.66537 126.46598 11696 ft 359 kts 101°
2026-05-04 12:57 37.65884 126.49238 12438 ft 365 kts 110°
2026-05-04 12:58 37.64946 126.52238 13307 ft 369 kts 111°
2026-05-04 12:58 37.63717 126.55095 14107 ft 376 kts 127°
2026-05-04 12:58 37.61908 126.57434 14857 ft 380 kts 138°
2026-05-04 12:58 37.59907 126.59650 15586 ft 384 kts 139°
2026-05-04 12:59 37.57890 126.61885 16322 ft 389 kts 138°
2026-05-04 12:59 37.55858 126.64170 17051 ft 393 kts 137°
2026-05-04 12:59 37.53813 126.66490 17761 ft 398 kts 137°
2026-05-04 12:59 37.51750 126.68840 18441 ft 402 kts 137°
2026-05-04 13:00 37.49665 126.71218 19039 ft 407 kts 137°
2026-05-04 13:00 37.47554 126.73624 19645 ft 411 kts 137°
2026-05-04 13:00 37.45478 126.75985 20213 ft 415 kts 136°
2026-05-04 13:00 37.43528 126.78610 20783 ft 417 kts 126°
2026-05-04 13:01 37.42092 126.81776 21346 ft 418 kts 110°
2026-05-04 13:01 37.41348 126.85299 21913 ft 418 kts 95°
2026-05-04 13:01 37.41236 126.88960 22486 ft 420 kts 87°
2026-05-04 13:01 37.41340 126.92637 22971 ft 423 kts 82°
2026-05-04 13:02 37.41850 126.96273 23116 ft 422 kts 75°
2026-05-04 13:02 37.42472 126.99885 23130 ft 422 kts 75°
2026-05-04 13:02 37.43086 127.03486 23130 ft 422 kts 75°
2026-05-04 13:02 37.43692 127.07105 23305 ft 422 kts 75°
2026-05-04 13:03 37.44294 127.10737 23799 ft 426 kts 75°
2026-05-04 13:03 37.44893 127.14411 24280 ft 430 kts 76°
2026-05-04 13:03 37.45487 127.18058 24746 ft 434 kts 76°
2026-05-04 13:03 37.46103 127.21807 25194 ft 438 kts 75°
2026-05-04 13:04 37.46724 127.25573 25626 ft 442 kts 76°
2026-05-04 13:04 37.47345 127.29389 26047 ft 446 kts 76°
2026-05-04 13:04 37.47973 127.33236 26460 ft 451 kts 76°
2026-05-04 13:04 37.48603 127.37115 26873 ft 455 kts 76°
2026-05-04 13:05 37.49237 127.41033 27287 ft 458 kts 76°
2026-05-04 13:05 37.49870 127.44984 27683 ft 462 kts 76°
2026-05-04 13:05 37.50288 127.47627 27938 ft 465 kts 76°
2026-05-04 13:05 37.51137 127.52944 28423 ft 470 kts 76°
2026-05-04 13:06 37.51789 127.56993 28782 ft 474 kts 76°
2026-05-04 13:06 37.52444 127.61091 29159 ft 478 kts 76°
2026-05-04 13:06 37.53097 127.65209 29511 ft 482 kts 76°
2026-05-04 13:06 37.53756 127.69362 29888 ft 484 kts 76°
2026-05-04 13:07 37.54192 127.72122 30192 ft 485 kts 77°
2026-05-04 13:07 37.54776 127.76307 30535 ft 488 kts 83°
2026-05-04 13:07 37.54653 127.80575 30897 ft 490 kts 99°
2026-05-04 13:07 37.53690 127.84687 31258 ft 491 kts 112°
2026-05-04 13:08 37.52410 127.88676 31605 ft 492 kts 113°
2026-05-04 13:08 37.51126 127.92674 31960 ft 493 kts 113°
2026-05-04 13:08 37.49869 127.96686 32330 ft 494 kts 113°
2026-05-04 13:08 37.48217 128.02037 32787 ft 495 kts 113°
2026-05-04 13:09 37.47379 128.04766 33021 ft 495 kts 113°
2026-05-04 13:09 37.45732 128.10127 33487 ft 496 kts 113°
2026-05-04 13:09 37.44893 128.12862 33695 ft 497 kts 114°
2026-05-04 13:09 37.43662 128.16870 34002 ft 498 kts 114°
2026-05-04 13:10 37.42411 128.20932 34296 ft 498 kts 114°
2026-05-04 13:10 37.41156 128.24988 34558 ft 499 kts 114°
2026-05-04 13:10 37.39893 128.29062 34814 ft 500 kts 114°
2026-05-04 13:10 37.38630 128.33136 35027 ft 501 kts 114°
2026-05-04 13:11 37.37365 128.37211 35250 ft 502 kts 114°
2026-05-04 13:11 37.36092 128.41302 35481 ft 502 kts 114°
2026-05-04 13:11 37.34819 128.45393 35707 ft 503 kts 114°
2026-05-04 13:11 37.33544 128.49485 35925 ft 504 kts 115°
2026-05-04 13:12 37.32263 128.53591 36129 ft 505 kts 115°
2026-05-04 13:12 37.30980 128.57709 36334 ft 506 kts 115°
2026-05-04 13:12 37.29711 128.61775 36535 ft 507 kts 115°
2026-05-04 13:12 37.28422 128.65887 36735 ft 508 kts 115°
2026-05-04 13:13 37.27121 128.70021 36943 ft 509 kts 115°
2026-05-04 13:13 37.25823 128.74147 37107 ft 510 kts 115°
2026-05-04 13:13 37.24519 128.78287 37152 ft 510 kts 115°
2026-05-04 13:14 37.21921 128.86570 37114 ft 510 kts 115°
2026-05-04 13:14 37.19308 128.94851 37097 ft 511 kts 116°
2026-05-04 13:15 37.16689 129.03126 37094 ft 511 kts 116°
2026-05-04 13:15 37.14075 129.11341 37086 ft 510 kts 116°
2026-05-04 13:16 37.11440 129.19594 37085 ft 510 kts 116°
2026-05-04 13:16 37.08800 129.27840 37073 ft 510 kts 116°
2026-05-04 13:17 37.06150 129.36092 37080 ft 511 kts 116°
2026-05-04 13:17 37.03496 129.44344 37077 ft 511 kts 116°
2026-05-04 13:18 37.00832 129.52597 37077 ft 512 kts 117°
2026-05-04 13:18 36.98173 129.60807 37074 ft 512 kts 117°
2026-05-04 13:19 36.95495 129.69068 37077 ft 513 kts 117°
2026-05-04 13:19 36.92807 129.77326 37079 ft 513 kts 117°
2026-05-04 13:20 36.90109 129.85591 37082 ft 514 kts 117°
2026-05-04 13:20 36.87399 129.93864 37085 ft 514 kts 117°
2026-05-04 13:21 36.84704 130.02076 37083 ft 515 kts 117°
2026-05-04 13:21 36.81983 130.10343 37083 ft 515 kts 118°
2026-05-04 13:22 36.79256 130.18605 37086 ft 515 kts 118°
2026-05-04 13:22 36.76517 130.26879 37077 ft 516 kts 118°
2026-05-04 13:23 36.73773 130.35138 37082 ft 516 kts 118°
2026-05-04 13:23 36.71018 130.43412 37087 ft 517 kts 118°
2026-05-04 13:24 36.68276 130.51628 37087 ft 517 kts 118°
2026-05-04 13:24 36.65507 130.59906 37090 ft 518 kts 119°
2026-05-04 13:25 36.61334 130.72320 37092 ft 519 kts 119°
2026-05-04 13:25 36.58545 130.80599 37091 ft 519 kts 119°
2026-05-04 13:26 36.55743 130.88886 37089 ft 520 kts 119°
2026-05-04 13:26 36.52933 130.97166 37091 ft 520 kts 120°
2026-05-04 13:27 36.50128 131.05400 37090 ft 521 kts 120°
2026-05-04 13:27 36.47300 131.13689 37092 ft 521 kts 120°
2026-05-04 13:28 36.44474 131.21989 37095 ft 522 kts 120°
2026-05-04 13:28 36.41633 131.30278 37094 ft 522 kts 120°
2026-05-04 13:29 36.38785 131.38570 37096 ft 522 kts 121°
2026-05-04 13:29 36.36131 131.46940 37102 ft 527 kts 117°
2026-05-04 13:30 36.33687 131.55511 37095 ft 528 kts 117°
2026-05-04 13:30 36.31230 131.64086 37095 ft 528 kts 117°
2026-05-04 13:31 36.28766 131.72653 37098 ft 528 kts 117°
2026-05-04 13:31 36.26293 131.81223 37099 ft 528 kts 117°
2026-05-04 13:32 36.23829 131.89723 37099 ft 528 kts 118°
2026-05-04 13:32 36.21342 131.98287 37101 ft 528 kts 118°
2026-05-04 13:33 36.18848 132.06849 37101 ft 529 kts 118°
2026-05-04 13:33 36.16351 132.15402 37098 ft 529 kts 118°
2026-05-04 13:34 36.13854 132.23905 37099 ft 529 kts 118°
2026-05-04 13:34 36.11338 132.32453 37106 ft 529 kts 119°
2026-05-04 13:35 36.07551 132.45285 37103 ft 529 kts 119°
2026-05-04 13:36 36.05016 132.53824 37108 ft 530 kts 119°
2026-05-04 13:36 36.02504 132.62303 37103 ft 529 kts 119°
2026-05-04 13:37 35.99964 132.70830 37102 ft 529 kts 120°
2026-05-04 13:37 35.97415 132.79349 37109 ft 529 kts 120°
2026-05-04 13:38 35.94866 132.87846 37107 ft 528 kts 120°
2026-05-04 13:38 35.92303 132.96357 37108 ft 529 kts 120°
2026-05-04 13:39 35.89760 133.04805 37111 ft 529 kts 120°
2026-05-04 13:39 35.87189 133.13299 37111 ft 529 kts 120°
2026-05-04 13:40 35.84612 133.21792 37110 ft 529 kts 120°
2026-05-04 13:40 35.82027 133.30290 37110 ft 530 kts 121°
2026-05-04 13:41 35.79434 133.38779 37112 ft 530 kts 121°
2026-05-04 13:41 35.76849 133.47212 37113 ft 530 kts 121°
2026-05-04 13:42 35.72930 133.59964 37105 ft 531 kts 121°
2026-05-04 13:42 35.70309 133.68459 37117 ft 531 kts 121°
2026-05-04 13:43 35.67705 133.76879 37110 ft 531 kts 121°
2026-05-04 13:43 35.65077 133.85357 37103 ft 530 kts 121°
2026-05-04 13:44 35.62441 133.93826 37109 ft 530 kts 121°
2026-05-04 13:44 35.59803 134.02282 37108 ft 530 kts 121°
2026-05-04 13:45 35.57179 134.10665 37106 ft 529 kts 121°
2026-05-04 13:45 35.54532 134.19096 37104 ft 529 kts 121°
2026-05-04 13:46 35.51881 134.27515 37107 ft 528 kts 121°
2026-05-04 13:46 35.49231 134.35916 37104 ft 528 kts 121°
2026-05-04 13:47 35.46572 134.44316 37118 ft 527 kts 122°
2026-05-04 13:47 35.43929 134.52636 37115 ft 527 kts 122°
2026-05-04 13:48 35.41266 134.60998 37111 ft 526 kts 122°
2026-05-04 13:48 35.38602 134.69336 37120 ft 525 kts 122°
2026-05-04 13:49 35.35953 134.77608 37110 ft 525 kts 122°
2026-05-04 13:49 35.33281 134.85927 37104 ft 525 kts 122°
2026-05-04 13:50 35.30607 134.94239 37110 ft 526 kts 122°
2026-05-04 13:50 35.27915 135.02554 37101 ft 525 kts 122°
2026-05-04 13:51 35.25225 135.10887 37106 ft 526 kts 122°
2026-05-04 13:51 35.22548 135.19133 37088 ft 525 kts 122°
2026-05-04 13:52 35.18490 135.31593 37090 ft 526 kts 122°
2026-05-04 13:53 35.15781 135.39877 37089 ft 526 kts 123°
2026-05-04 13:53 35.13078 135.48124 37088 ft 526 kts 123°
2026-05-04 13:54 35.08988 135.60556 37071 ft 525 kts 123°
2026-05-04 13:55 35.04900 135.72936 37067 ft 524 kts 123°
2026-05-04 13:55 35.01183 135.85519 37071 ft 542 kts 111°
2026-05-04 13:56 34.99745 135.94507 37059 ft 540 kts 110°
2026-05-04 13:57 34.97592 136.07965 37053 ft 537 kts 110°
2026-05-04 13:58 34.94671 136.25751 37036 ft 537 kts 111°
2026-05-04 13:58 34.92457 136.39133 37008 ft 538 kts 111°
2026-05-04 13:59 34.90971 136.48063 37021 ft 536 kts 111°
2026-05-04 14:00 34.88764 136.61250 36991 ft 533 kts 112°
2026-05-04 14:00 34.86486 136.74672 36996 ft 543 kts 111°
2026-05-04 14:01 34.84970 136.83667 36987 ft 542 kts 111°
2026-05-04 14:02 34.82818 136.97125 36990 ft 547 kts 107°
2026-05-04 14:02 34.81802 137.06295 36990 ft 547 kts 107°
2026-05-04 14:03 34.80789 137.15462 36976 ft 546 kts 107°
2026-05-04 14:03 34.79764 137.24608 36965 ft 544 kts 107°
2026-05-04 14:04 34.78213 137.38268 36953 ft 543 kts 108°
2026-05-04 14:04 34.77181 137.47299 36950 ft 543 kts 108°
2026-05-04 14:05 34.76142 137.56362 36688 ft 540 kts 108°
2026-05-04 14:05 34.75614 137.60899 36379 ft 544 kts 108°
2026-05-04 14:05 34.75080 137.65471 36111 ft 546 kts 108°
2026-05-04 14:06 34.74593 137.70045 35854 ft 548 kts 107°
2026-05-04 14:06 34.74154 137.74655 35600 ft 548 kts 106°
2026-05-04 14:06 34.73726 137.79204 35350 ft 548 kts 107°
2026-05-04 14:06 34.73290 137.83802 35090 ft 547 kts 107°
2026-05-04 14:07 34.72846 137.88387 34842 ft 547 kts 107°
2026-05-04 14:07 34.72405 137.92981 34592 ft 547 kts 107°
2026-05-04 14:07 34.71966 137.97575 34354 ft 546 kts 107°
2026-05-04 14:07 34.71539 138.02157 34108 ft 548 kts 105°
2026-05-04 14:08 34.71419 138.06833 33869 ft 556 kts 99°
2026-05-04 14:08 34.71445 138.11534 33606 ft 556 kts 98°
2026-05-04 14:08 34.71478 138.16226 33342 ft 555 kts 98°
2026-05-04 14:08 34.71504 138.20915 33061 ft 555 kts 98°
2026-05-04 14:09 34.71539 138.30180 31837 ft 551 kts 98°
2026-05-04 14:09 34.71548 138.34832 31195 ft 550 kts 97°
2026-05-04 14:10 34.71560 138.44091 30008 ft 546 kts 97°
2026-05-04 14:10 34.71562 138.48692 29330 ft 544 kts 97°
2026-05-04 14:10 34.71564 138.53283 28673 ft 541 kts 97°
2026-05-04 14:10 34.71571 138.57787 28068 ft 538 kts 97°
2026-05-04 14:11 34.71572 138.62315 27493 ft 534 kts 97°
2026-05-04 14:11 34.71558 138.71279 26320 ft 528 kts 97°
2026-05-04 14:11 34.71549 138.75736 25732 ft 525 kts 97°
2026-05-04 14:12 34.71544 138.80153 25156 ft 522 kts 97°
2026-05-04 14:12 34.71533 138.84549 24592 ft 519 kts 97°
2026-05-04 14:12 34.71499 138.93201 23419 ft 508 kts 96°
2026-05-04 14:13 34.71482 138.97460 22765 ft 499 kts 96°
2026-05-04 14:13 34.71465 139.01628 22140 ft 489 kts 96°
2026-05-04 14:13 34.71447 139.05730 21548 ft 480 kts 96°
2026-05-04 14:13 34.71430 139.09745 20982 ft 470 kts 95°
2026-05-04 14:14 34.71408 139.13672 20449 ft 460 kts 95°
2026-05-04 14:14 34.71367 139.21300 19473 ft 444 kts 95°
2026-05-04 14:14 34.71343 139.25023 19003 ft 438 kts 95°
2026-05-04 14:15 34.71292 139.32350 18121 ft 429 kts 94°
2026-05-04 14:15 34.71276 139.39529 16356 ft 434 kts 89°
2026-05-04 14:16 34.73204 139.46424 14671 ft 429 kts 54°
2026-05-04 14:16 34.74866 139.49361 14086 ft 418 kts 48°
2026-05-04 14:17 34.79336 139.53477 12645 ft 394 kts 22°
2026-05-04 14:17 34.81740 139.55024 11996 ft 387 kts 22°
2026-05-04 14:17 34.86379 139.58078 11015 ft 370 kts 23°
2026-05-04 14:18 34.88566 139.59551 10764 ft 359 kts 24°
2026-05-04 14:18 34.92777 139.62413 10395 ft 334 kts 24°
2026-05-04 14:19 34.96684 139.65085 10096 ft 311 kts 24°
2026-05-04 14:19 34.98587 139.66293 9665 ft 305 kts 17°
2026-05-04 14:19 35.00578 139.67064 9147 ft 297 kts 11°
2026-05-04 14:19 35.02564 139.67707 8604 ft 294 kts 11°
2026-05-04 14:20 35.04522 139.68350 8140 ft 288 kts 12°
2026-05-04 14:20 35.06426 139.68995 7736 ft 282 kts 13°
2026-05-04 14:20 35.08306 139.69644 7373 ft 280 kts 13°
2026-05-04 14:21 35.12023 139.70936 6675 ft 275 kts 13°
2026-05-04 14:21 35.13857 139.71577 6352 ft 275 kts 13°
2026-05-04 14:21 35.15695 139.72222 6004 ft 273 kts 13°
2026-05-04 14:21 35.17488 139.72861 5663 ft 270 kts 14°
2026-05-04 14:22 35.19279 139.73496 5320 ft 267 kts 13°
2026-05-04 14:22 35.21054 139.74116 4986 ft 264 kts 13°
2026-05-04 14:22 35.22813 139.74732 4634 ft 261 kts 13°
2026-05-04 14:22 35.24546 139.75343 4300 ft 258 kts 14°
2026-05-04 14:23 35.27889 139.76520 3975 ft 237 kts 13°
2026-05-04 14:23 35.29418 139.77050 3972 ft 220 kts 12°
2026-05-04 14:23 35.30846 139.77543 3982 ft 211 kts 13°
2026-05-04 14:24 35.32208 139.78237 3933 ft 216 kts 29°
2026-05-04 14:24 35.33391 139.79314 3696 ft 214 kts 33°
2026-05-04 14:24 35.34576 139.80433 3390 ft 214 kts 32°
2026-05-04 14:24 35.35758 139.81527 3119 ft 211 kts 31°
2026-05-04 14:25 35.36922 139.82595 2867 ft 208 kts 31°
2026-05-04 14:25 35.39201 139.84662 2365 ft 200 kts 30°
2026-05-04 14:25 35.40312 139.85667 2093 ft 195 kts 30°
2026-05-04 14:26 35.41374 139.86548 1978 ft 178 kts 21°
2026-05-04 14:26 35.42529 139.86914 1864 ft 169 kts 358°
2026-05-04 14:26 35.43701 139.86950 1655 ft 167 kts 355°
2026-05-04 14:26 35.44821 139.86728 1496 ft 154 kts 342°
2026-05-04 14:27 35.45734 139.86267 1503 ft 131 kts 335°
2026-05-04 14:27 35.46497 139.85774 1491 ft 121 kts 333°
2026-05-04 14:27 35.47230 139.85285 1526 ft 118 kts 333°
2026-05-04 14:27 35.47895 139.84821 1440 ft 107 kts 332°
2026-05-04 14:28 35.48531 139.84372 1306 ft 107 kts 332°
2026-05-04 14:28 35.49177 139.83914 1157 ft 108 kts 332°
2026-05-04 14:28 35.49831 139.83449 1002 ft 108 kts 332°
2026-05-04 14:28 35.50494 139.82978 887 ft 113 kts 332°
2026-05-04 14:29 35.51851 139.82015 561 ft 116 kts 332°
2026-05-04 14:29 35.53226 139.81033 277 ft 116 kts 332°
2026-05-04 14:30 35.53935 139.80536 140 ft 120 kts 331°
2026-05-04 14:30 35.54652 139.80029 45 ft 114 kts 332°
2026-05-04 14:30 35.55591 139.79363 34 ft 31 kts 330°
2026-05-04 14:31 35.55679 139.79285 34 ft 16 kts 315°
2026-05-04 14:31 35.55750 139.79197 33 ft 3 kts 307°
2026-05-04 14:32 35.55789 139.79124 34 ft 0 kts 298°
2026-05-04 14:32 35.55795 139.79110 34 ft 3 kts 298°
2026-05-04 14:32 35.55809 139.79071 34 ft 7 kts 293°
2026-05-04 14:32 35.55833 139.79009 35 ft 10 kts 296°
2026-05-04 14:33 35.55871 139.78926 35 ft 13 kts 307°
2026-05-04 14:33 35.55946 139.78854 35 ft 15 kts 329°
2026-05-04 14:33 35.56044 139.78784 35 ft 17 kts 332°
2026-05-04 14:33 35.56157 139.78708 35 ft 20 kts 329°
2026-05-04 14:34 35.56281 139.78617 36 ft 22 kts 329°
2026-05-04 14:34 35.56393 139.78518 36 ft 20 kts 286°
2026-05-04 14:34 35.56346 139.78399 36 ft 11 kts 239°
2026-05-04 14:34 35.56302 139.78307 36 ft 14 kts 241°
2026-05-04 14:35 35.56252 139.78197 36 ft 16 kts 240°
2026-05-04 14:35 35.56192 139.78068 36 ft 18 kts 240°
2026-05-04 14:35 35.56124 139.77923 36 ft 21 kts 240°
2026-05-04 14:35 35.56063 139.77792 36 ft 14 kts 239°
2026-05-04 14:36 35.56006 139.77677 36 ft 17 kts 239°
2026-05-04 14:36 35.55943 139.77544 36 ft 19 kts 240°
2026-05-04 14:36 35.55881 139.77411 36 ft 14 kts 240°
2026-05-04 14:36 35.55811 139.77311 35 ft 17 kts 214°
2026-05-04 14:37 35.55746 139.77258 35 ft 0 kts 214°
2026-05-04 14:37 35.55745 139.77257 35 ft 1 kts 213°
2026-05-04 14:37 35.55737 139.77251 34 ft 2 kts 213°
2026-05-04 14:37 35.55719 139.77236 34 ft 4 kts 213°
2026-05-04 14:38 35.55691 139.77213 32 ft 6 kts 216°
2026-05-04 14:38 35.55652 139.77178 31 ft 10 kts 216°
2026-05-04 14:38 35.55578 139.77112 32 ft 15 kts 216°
2026-05-04 14:38 35.55478 139.77044 34 ft 18 kts 182°
2026-05-04 14:39 35.55358 139.77110 35 ft 20 kts 147°
2026-05-04 14:39 35.55228 139.77199 35 ft 22 kts 152°
2026-05-04 14:39 35.55085 139.77299 35 ft 25 kts 149°
2026-05-04 14:40 35.54899 139.77410 35 ft 8 kts 192°
2026-05-04 14:40 35.54851 139.77353 35 ft 11 kts 236°
2026-05-04 14:40 35.54807 139.77259 36 ft 14 kts 240°
2026-05-04 14:40 35.54756 139.77146 36 ft 16 kts 240°
2026-05-04 14:41 35.54661 139.77102 36 ft 13 kts 155°
2026-05-04 14:41 35.54619 139.77129 36 ft 0 kts 152°
2026-05-04 14:41 35.54586 139.77143 36 ft 5 kts 173°
2026-05-04 14:42 35.54553 139.77112 36 ft 2 kts 238°
2026-05-04 14:42 35.54539 139.77085 36 ft 5 kts 239°
2026-05-04 14:42 35.54525 139.77054 36 ft 0 kts 239°
2026-05-04 14:43 35.54525 139.77055 36 ft 0 kts 239°